STARLINK-5508 (55639 NORAD) Tracking and Keplerian Element Data

This shows tracking and keplerian element data for the satellite.

Feedback or suggestion? Click here.




ElementValue
Catalog55639
NameSTARLINK-5508
Epoch Orbit130
Epoch Day62.91667824
Epoch Year2023
RAAN110.1966
Inclination69.9997
Eccentricity0.000368
Argument of Perigee281.0447
Mean Anonmoly316.8689
Mean Motion15.75046196
Decay Rate-0.01046863
L11 55639U 23021M 23062.91667824 -.01046863 00000+0 -77691-2 0 9993
L22 55639 69.9997 110.1966 0003680 281.0447 316.8689 15.75046196 1305



Live tracking and technical data element details for STARLINK-5508 (NORAD 55639). STARLINK-5508 can be tracked NOW for your location showing map with azimuth and elevation plus other details from your city location.







IsCatalogInMostPopularTable: catalog: 55639, numindb: 1
Update: records affected: 1



GetName: 55639 STARLINK-5508

Hit Count: updated at: Wed, 22 Mar 2023 15:42:52 GMT